Location: Unspecified
(0.0000°N, 0.0000°E)
Time: 17:09:58
(UTC+00:00)

CZ-3C DEB - Pass Details

Date: 11 March 2026
Orbit: 544 x 34777 km, 21.8° (Epoch: 16 April)

Event Time Altitude Azimuth Distance (km) Brightness Sun altitude
Rises 12:16:56 0° 245° (WSW) 8,443 ? 86.0°
Reaches altitude 10° 12:20:53 10° 241° (WSW) 8,581 ? 85.5°
Maximum altitude 15:16:12 73° 214° (SSW) 31,432 ? 43.3°
Enters shadow 21:49:00 43° 9° (N) 5,574 ? -54.6°
